[[{"header":{"parameterUnit":"m.s-1","parameterCategory":1,"la1":30.2991,"la2":30.254,"lo1":-89.0895,"lo2":-89.0444,"dy":0.0017,"dx":0.0017,"nx":28,"ny":28,"refTime":"2024-08-14T03:00:00:Z","depth":0,"parameterNumber":2,"parameterNumberName":"U-component_of_WINDS"},"data":[0,0,0,0,0,0,0,0,0,0,0,0,0,0,0,0,0,0,0,0,0,0,0,0,0,0,0,0,0,0,0,0,0,0,0,0,0,0,0,0,0,0,0,0,0,0,0,0,0,0,0,0,0,0,0,0,0,0,2.9231,2.9232,0,2.9316,2.9317,2.9318,2.924,2.9236,2.9233,2.923,2.9321,2.9327,2.9332,0,0,0,0,0,0,0,0,0,0,0,0,0,2.9004,2.9009,2.9231,2.9232,2.9233,2.9316,2.9317,2.9318,2.924,2.9236,2.9232,2.9229,2.932,2.9326,2.9332,0,0,0,0,0,0,0,0,0,0,0,0,0,2.9098,2.901,2.923,2.9204,2.9202,2.9316,2.9317,2.9318,2.9241,2.9236,2.9231,2.9227,2.9317,2.9325,2.9333,2.9478,0,0,2.9358,2.9361,0,0,0,0,0,0,0,0,2.9092,2.9106,2.9207,2.9206,2.9204,2.9262,2.927,2.9372,2.9242,2.9226,2.923,2.9225,2.9306,2.9314,2.9341,2.9483,2.9487,2.9359,2.9364,2.9367,2.9369,0,0,0,0,0,0,0,2.9086,2.9102,2.9264,2.9208,2.9207,2.9189,2.9197,2.9289,2.9292,2.9227,2.9222,2.9233,2.9304,2.9333,2.9343,2.9488,2.9358,2.9366,2.9371,2.9374,2.9754,2.9759,0,0,0,0,0,0,2.9082,2.9097,2.9262,2.9267,2.9135,2.9197,2.9206,2.9248,2.9291,2.9292,2.9237,2.9229,2.9322,2.9333,2.9346,2.9518,2.9367,2.9375,2.9379,2.9748,2.9755,2.976,0,0,0,0,0,0,2.9077,2.9097,2.9258,2.9181,2.92,2.9206,2.9254,2.9253,2.9282,2.9298,2.9298,2.9266,2.9319,2.9334,2.9446,2.952,2.9378,2.9385,2.9742,2.975,2.9758,2.9865,0,0,0,0,0,0,2.9071,2.9096,2.915,2.9182,2.9204,2.9356,2.9259,2.9258,2.9295,2.9286,2.9325,2.9327,2.9316,2.9434,2.9454,2.9529,2.9392,2.9735,2.9746,2.9755,2.9855,2.9876,2.9893,0,0,0,0,0,2.9063,2.9178,2.9153,2.9174,2.9272,2.9361,2.9373,2.9357,2.9302,2.9357,2.9367,2.9326,2.9509,2.9446,2.9468,2.9546,2.9731,2.9743,2.9754,2.9846,2.9872,2.9893,0,0,0,0,0,0,2.9156,2.9182,2.9155,2.9283,2.932,2.9347,2.9416,2.9384,2.9439,2.9428,2.9407,2.9417,2.9535,2.9552,2.9481,2.9689,2.9611,2.9628,2.9674,2.9698,2.9717,2.971,2.9399,0,0,0,0,0,2.9191,2.926,2.9279,2.939,2.941,2.941,2.9448,2.9433,2.9471,2.9487,2.9505,2.9545,2.9611,2.9656,2.9718,2.9857,2.9865,2.9922,2.9941,2.9957,2.9972,3.0047,3.0073,2.9799,2.9799,2.9799,0,0,2.9265,2.9287,2.9332,2.941,2.9436,2.9509,2.9424,2.9505,2.9559,2.9499,2.9605,2.9621,2.9664,2.979,2.9847,2.9808,3.0049,2.9972,2.9984,2.9991,3.0062,3.0088,3.0111,2.9807,2.9806,2.9804,0,0,2.9436,2.946,2.9555,2.9583,2.9625,2.9624,2.9647,2.968,2.9687,2.9793,2.975,2.9815,2.993,2.9962,2.9994,3.0178,3.0143,3.0199,3.03,3.0374,3.0396,3.0415,3.0481,3.0505,3.0214,3.0214,3.0214,0,2.9522,2.9629,2.9608,2.9692,2.9728,2.9676,2.9773,2.9803,2.9863,2.989,2.9845,2.9988,3.0014,3.0147,3.0192,3.0219,3.0246,3.0195,3.0394,3.0413,3.043,3.0493,3.0518,3.0221,3.022,3.0219,3.0219,0,2.9734,2.9808,2.9881,2.9939,2.9983,3.0073,3.0067,3.0115,3.0096,3.01,3.021,3.0238,3.0305,3.0336,3.0319,3.0468,3.0442,3.0397,3.0317,3.0463,3.0522,3.0546,3.023,3.0228,3.0226,3.0224,0,0,2.9965,3.0011,3.0038,3.0063,3.0106,3.0164,3.0253,3.0317,3.0358,3.0402,3.0476,3.0575,3.0533,3.0569,3.0555,3.062,3.0764,3.0566,3.0567,3.0602,3.0931,3.0965,3.0993,3.0741,3.0746,3.0749,3.0927,0,3.0138,3.029,3.0274,3.0419,3.0489,3.0441,3.0518,3.0553,3.056,3.0621,3.0629,3.07,3.0638,3.066,3.0722,3.0734,3.083,3.0721,3.0811,3.0814,3.0801,3.1024,3.106,3.1227,3.095,3.0954,3.0957,0,3.0359,3.041,3.0562,3.0593,3.0622,3.0691,3.0749,3.0808,3.0847,3.0848,3.0889,3.0863,3.0954,3.0873,3.0998,3.0923,3.096,3.0971,3.0977,3.0985,3.0894,3.1038,3.1279,3.1305,3.0993,3.099,3.0987,0,3.0513,3.0619,3.0724,3.0747,3.0787,3.0837,3.0857,3.0891,3.0931,3.0982,3.1008,3.107,3.1104,3.1153,3.1146,3.1088,3.1273,3.1192,3.1277,3.1278,3.1318,3.1316,3.1569,3.1342,3.1342,3.1341,3.1341,0,3.0708,3.0803,3.0793,3.0858,3.0963,3.0945,3.105,3.1063,3.1095,3.1162,3.1125,3.1189,3.1175,3.124,3.1235,3.1339,3.1355,3.1359,3.1356,3.1362,3.1362,3.1385,3.1374,3.1348,3.1346,3.1345,3.1344,0,3.0898,3.0895,3.1006,3.1034,3.1043,3.112,3.1145,3.1206,3.121,3.1296,3.1315,3.1322,3.1395,3.1393,3.1477,3.1474,3.1602,3.1586,3.1589,3.1585,3.1671,3.1663,3.1949,3.1985,3.1734,3.1737,3.1739,0,3.1022,3.1093,3.1129,3.1171,3.1193,3.1261,3.1301,3.1286,3.133,3.138,3.1436,3.1506,3.1561,3.1682,3.1695,3.176,3.1745,3.1841,3.1755,3.1758,3.1747,3.1743,3.175,3.1858,3.1861,3.1863,3.1865,0,3.1243,3.1238,3.1296,3.1355,3.1404,3.145,3.1492,3.1529,3.1519,3.157,3.1644,3.1687,3.1772,3.1843,3.1905,3.1926,3.1895,3.1892,3.1915,3.1922,3.192,3.1922,3.1635,3.1885,3.1883,3.1882,3.1881,3.188,3.1404,3.1465,3.15,3.1567,3.1597,3.1637,3.1696,3.1707,3.1768,3.1835,3.1823,3.1907,3.1945,3.2025,3.2052,3.2118,3.2084,3.2118,3.2126,3.2135,3.2144,3.1909,3.2129,3.2128,3.2128,3.2127,3.2127,0,3.1623,3.1643,3.1704,3.1764,3.1817,3.1781,3.1826,3.1873,3.1946,3.1984,3.2039,3.2125,3.2193,3.2212,3.2278,3.2327,3.2314,3.2345,3.2341,3.2347,3.2171,3.2144,3.2354,3.2354,3.2354,3.2354,3.2354,3.2354,3.1743,3.1845,3.1845,3.1962,3.1982,3.2062,3.2091,3.2128,3.2158,3.2255,3.2311,3.2322,3.2353,3.2421,3.2482,3.2486,3.2512,3.2549,3.2547,3.2382,3.2359,3.2337,3.2312,3.2554,3.2555,3.2717,3.2719,3.272]},{"header":{"parameterUnit":"m.s-1","parameterCategory":1,"la1":30.2991,"la2":30.254,"lo1":-89.0895,"lo2":-89.0444,"dy":0.0017,"dx":0.0017,"nx":28,"ny":28,"refTime":"2024-08-14T03:00:00:Z","depth":0,"parameterNumber":3,"parameterNumberName":"V-component_of_WINDS"},"data":[0,0,0,0,0,0,0,0,0,0,0,0,0,0,0,0,0,0,0,0,0,0,0,0,0,0,0,0,0,0,0,0,0,0,0,0,0,0,0,0,0,0,0,0,0,0,0,0,0,0,0,0,0,0,0,0,0,0,-1.1896,-1.1896,0,-1.1962,-1.1962,-1.1963,-1.1975,-1.1975,-1.1974,-1.1974,-1.2042,-1.2044,-1.2046,0,0,0,0,0,0,0,0,0,0,0,0,0,-1.1779,-1.1781,-1.1895,-1.1896,-1.1897,-1.1962,-1.1963,-1.1963,-1.1975,-1.1975,-1.1974,-1.1974,-1.2041,-1.2044,-1.2046,0,0,0,0,0,0,0,0,0,0,0,0,0,-1.1836,-1.1782,-1.1895,-1.1911,-1.1913,-1.1961,-1.1963,-1.1964,-1.1976,-1.1975,-1.1974,-1.1973,-1.204,-1.2043,-1.2047,-1.2084,0,0,-1.2057,-1.2059,0,0,0,0,0,0,0,0,-1.1833,-1.184,-1.1908,-1.191,-1.1912,-1.1959,-1.1947,-1.2004,-1.1976,-1.1952,-1.1974,-1.1973,-1.2015,-1.202,-1.2035,-1.2088,-1.209,-1.2058,-1.206,-1.2061,-1.2062,0,0,0,0,0,0,0,-1.1829,-1.1838,-1.1922,-1.1909,-1.1912,-1.1915,-1.1922,-1.1957,-1.1987,-1.1954,-1.1955,-1.1963,-1.2016,-1.2031,-1.2036,-1.2091,-1.2058,-1.2061,-1.2063,-1.2064,-1.2179,-1.218,0,0,0,0,0,0,-1.1822,-1.1834,-1.192,-1.1924,-1.187,-1.1917,-1.1925,-1.1945,-1.1987,-1.1992,-1.1963,-1.1963,-1.2026,-1.2032,-1.2039,-1.2086,-1.2061,-1.2064,-1.2066,-1.2178,-1.2179,-1.218,0,0,0,0,0,0,-1.182,-1.183,-1.1917,-1.1879,-1.1891,-1.192,-1.1942,-1.1947,-1.1962,-1.1994,-1.1999,-1.1973,-1.2025,-1.2034,-1.2073,-1.2088,-1.2066,-1.2069,-1.2177,-1.2178,-1.2179,-1.218,0,0,0,0,0,0,-1.1816,-1.1829,-1.1843,-1.188,-1.1893,-1.195,-1.1943,-1.1949,-1.1968,-1.1968,-1.2005,-1.201,-1.2025,-1.2068,-1.2076,-1.2093,-1.2072,-1.2175,-1.2177,-1.2179,-1.2178,-1.2181,-1.2183,0,0,0,0,0,-1.1812,-1.1841,-1.1844,-1.1854,-1.1911,-1.1951,-1.1958,-1.1975,-1.1969,-1.1984,-1.2005,-1.2009,-1.2085,-1.2072,-1.2082,-1.2099,-1.2175,-1.2177,-1.2179,-1.2177,-1.218,-1.2183,0,0,0,0,0,0,-1.1806,-1.1846,-1.185,-1.1891,-1.1917,-1.1953,-1.1972,-1.1978,-1.2007,-1.2006,-1.2026,-1.2034,-1.2072,-1.2089,-1.2074,-1.2138,-1.2129,-1.2134,-1.2125,-1.2128,-1.213,-1.2125,-1.2075,0,0,0,0,0,-1.1809,-1.1838,-1.1871,-1.1904,-1.1917,-1.1942,-1.196,-1.1971,-1.1999,-1.2011,-1.2034,-1.2061,-1.2091,-1.211,-1.214,-1.2181,-1.2189,-1.2198,-1.22,-1.2202,-1.2205,-1.2228,-1.2233,-1.2187,-1.2187,-1.2187,0,0,-1.1816,-1.1842,-1.1859,-1.1904,-1.1925,-1.1955,-1.1952,-1.1983,-1.2005,-1.2015,-1.2054,-1.2072,-1.2103,-1.2143,-1.2162,-1.2159,-1.222,-1.2204,-1.2206,-1.2208,-1.2231,-1.2235,-1.2239,-1.2189,-1.2188,-1.2188,0,0,-1.1845,-1.1867,-1.1897,-1.1919,-1.1951,-1.1968,-1.1975,-1.201,-1.2022,-1.2061,-1.2069,-1.2096,-1.2147,-1.2169,-1.2187,-1.2224,-1.2229,-1.2233,-1.2245,-1.2267,-1.2271,-1.2274,-1.2287,-1.2292,-1.2236,-1.2236,-1.2236,0,-1.185,-1.1894,-1.1911,-1.1942,-1.1962,-1.1972,-1.2003,-1.2023,-1.2064,-1.2077,-1.2073,-1.2138,-1.216,-1.2206,-1.2214,-1.2229,-1.2238,-1.2229,-1.2269,-1.2272,-1.2276,-1.2288,-1.2293,-1.2236,-1.2236,-1.2236,-1.2236,0,-1.1898,-1.1929,-1.1949,-1.1988,-1.201,-1.2041,-1.2063,-1.2083,-1.2092,-1.2108,-1.2148,-1.2175,-1.221,-1.2221,-1.223,-1.2268,-1.2265,-1.2265,-1.2257,-1.228,-1.2292,-1.2297,-1.2237,-1.2237,-1.2237,-1.2236,0,0,-1.1925,-1.1973,-1.198,-1.1998,-1.2035,-1.2059,-1.209,-1.2124,-1.2141,-1.2169,-1.2195,-1.2238,-1.2238,-1.2258,-1.227,-1.2289,-1.2317,-1.2286,-1.2288,-1.2291,-1.236,-1.2361,-1.2366,-1.232,-1.2321,-1.2322,-1.2358,0,-1.1958,-1.2013,-1.2029,-1.2076,-1.2105,-1.2115,-1.2142,-1.2168,-1.2184,-1.2211,-1.2229,-1.226,-1.2257,-1.2269,-1.2289,-1.2309,-1.2331,-1.2307,-1.2345,-1.2346,-1.2337,-1.2373,-1.2373,-1.2406,-1.2363,-1.2363,-1.2364,0,-1.2003,-1.2032,-1.2081,-1.2114,-1.2127,-1.2151,-1.2183,-1.2209,-1.2238,-1.2249,-1.2271,-1.2281,-1.2314,-1.2304,-1.235,-1.2333,-1.235,-1.2362,-1.2364,-1.2368,-1.2357,-1.2378,-1.2416,-1.2421,-1.2372,-1.2371,-1.2371,0,-1.2018,-1.2068,-1.2104,-1.2119,-1.2159,-1.2175,-1.2193,-1.2221,-1.2241,-1.2269,-1.2282,-1.2314,-1.2332,-1.2356,-1.2375,-1.2366,-1.2419,-1.241,-1.2429,-1.2428,-1.244,-1.2439,-1.2481,-1.245,-1.245,-1.245,-1.245,0,-1.2053,-1.2083,-1.2111,-1.2134,-1.2167,-1.2186,-1.2219,-1.2237,-1.2262,-1.2288,-1.2299,-1.2323,-1.2346,-1.2373,-1.2387,-1.2423,-1.2431,-1.244,-1.2444,-1.244,-1.2438,-1.2451,-1.2449,-1.2451,-1.2451,-1.245,-1.245,0,-1.2075,-1.2095,-1.2135,-1.2169,-1.2179,-1.2202,-1.2231,-1.2253,-1.227,-1.2303,-1.2311,-1.2338,-1.2371,-1.2391,-1.2433,-1.2443,-1.2482,-1.2484,-1.2472,-1.2474,-1.2491,-1.2489,-1.2543,-1.2551,-1.2514,-1.2514,-1.2515,0,-1.2096,-1.2119,-1.2155,-1.2173,-1.2191,-1.222,-1.224,-1.2259,-1.2279,-1.2314,-1.2332,-1.2365,-1.2393,-1.2444,-1.2468,-1.2499,-1.2503,-1.252,-1.2508,-1.2503,-1.2504,-1.2502,-1.2505,-1.2522,-1.2522,-1.2523,-1.2523,0,-1.2131,-1.214,-1.2168,-1.22,-1.2223,-1.2249,-1.2275,-1.2289,-1.2313,-1.2335,-1.2369,-1.239,-1.2432,-1.2465,-1.2499,-1.2517,-1.2524,-1.2526,-1.2532,-1.2528,-1.252,-1.2525,-1.2477,-1.2525,-1.2525,-1.2525,-1.2524,-1.2524,-1.2154,-1.2175,-1.2204,-1.2235,-1.2256,-1.228,-1.2302,-1.2322,-1.235,-1.2386,-1.2395,-1.243,-1.2459,-1.2505,-1.2524,-1.2552,-1.2549,-1.2558,-1.256,-1.2562,-1.2563,-1.2515,-1.2558,-1.2558,-1.2558,-1.2558,-1.2558,0,-1.219,-1.2209,-1.2237,-1.2273,-1.2297,-1.2301,-1.233,-1.235,-1.2381,-1.2407,-1.2434,-1.2472,-1.2504,-1.253,-1.2563,-1.258,-1.2584,-1.2588,-1.2587,-1.2591,-1.2562,-1.2554,-1.2584,-1.2584,-1.2584,-1.2584,-1.2584,-1.2584,-1.2212,-1.2248,-1.226,-1.2306,-1.2325,-1.2359,-1.2376,-1.2398,-1.2419,-1.2461,-1.2487,-1.2504,-1.253,-1.2565,-1.2594,-1.2601,-1.2613,-1.2616,-1.2624,-1.2596,-1.2593,-1.259,-1.2583,-1.2618,-1.2619,-1.265,-1.2651,-1.2651]}]]